Hourly Data Report for October 08, 2015

All times are specified in Local Standard Time (LST). Add 1 hour to adjust for Daylight Saving Time where and when it is observed.

GJOA HAVEN A
NUNAVUT

68°38'08.000" N
95°51'01.000" W
46.90 m
2302337
71597
YHK

Download Data

Hourly Data (October 2015)
Hourly Data Report for October 8, 2015
Temp Definition
°C
Dew Point Temp Definition
°C
Rel Hum Definition
%
Wind Dir Definition
10's deg

Wind Spd Definition
km/h
Visibility Definition
km
Stn Press Definition
kPa
Hmdx Definition


Wind Chill Definition


Weather Definition


TIME
00:00 Legend Double Dagger -8.5 -10.3 87 27 21 16.1 99.85   -16 LegendNANA
01:00 Legend Double Dagger -8.1 -9.6 89 27 22 16.1 99.85   -16 LegendNANA
02:00 Legend Double Dagger -7.9 -9.1 91 27 24 16.1 99.82   -16 LegendNANA
03:00 Legend Double Dagger -8.1 -9.8 88 27 26 16.1 99.81   -16 LegendNANA
04:00 Legend Double Dagger -8.9 -10.4 89 27 24 16.1 99.81   -17 LegendNANA
05:00 Legend Double Dagger -7.6 -8.8 91 26 22 16.1 99.79   -15 LegendNANA
06:00 Legend Double Dagger -7.1 -9.2 85 26 24 16.1 99.77   -15 LegendNANA
07:00 Legend Double Dagger -6.5 -8.6 85 27 26 16.1 99.73   -14 Snow
08:00 Legend Double Dagger -6.3 -8.4 85 26 24 16.1 99.68   -14 Snow
09:00 Legend Double Dagger -6.0 -8.1 85 26 22 16.1 99.66   -13 Snow
10:00 Legend Double Dagger -5.6 -7.7 85 26 32 16.1 99.58   -14 Snow
11:00 Legend Double Dagger -5.6 -6.5 93 26 26 3.2 99.53   -13 Snow
12:00 Legend Double Dagger -6.0 -7.4 90 26 24 14.5 99.47   -13 Snow
13:00 Legend Double Dagger -5.9 -7.7 87 25 30 16.1 99.43   -14 LegendNANA
14:00 Legend Double Dagger -6.6 -7.4 94 26 28 0.4 99.32   -15 Heavy Snow
15:00 Legend Double Dagger -7.3 -8.5 91 30 24 16.1 99.38   -15 Snow
16:00 Legend Double Dagger -9.5 -10.4 93 33 26 16.1 99.49   -18 LegendNANA
17:00 Legend Double Dagger -7.4 -8.8 90 31 28 16.1 99.52   -16 Snow
18:00 Legend Double Dagger -10.2 -11.9 87 30 26 16.1 99.56   -19 LegendNANA
19:00 Legend Double Dagger -11.3 -12.6 90 30 22 16.1 99.58   -20 LegendNANA
20:00 Legend Double Dagger -10.8 -11.9 92 30 26 16.1 99.57   -20 LegendNANA
21:00 Legend Double Dagger -11.6 -12.5 93 30 22 16.1 99.56   -20 LegendNANA
22:00 Legend Double Dagger -11.2 -12.1 93 32 28 16.1 99.60   -21 LegendNANA
23:00 Legend Double Dagger -8.9 -10.3 90 32 30 16.1 99.62   -18 LegendNANA

Notes on Data Quality.

Legend

  • E = Estimated
  • M = Missing
  • NA = Not Available
  • ‡ = Partner data that is not subject to review by the National Climate Archives
Date modified: